Time,TemperatureF,DewpointF,PressureIn,WindDirection,WindDirectionDegrees,WindSpeedMPH,WindSpeedGustMPH,Humidity,HourlyPrecipIn,Conditions,Clouds,dailyrainin,SoftwareType,DateUTC
2013-02-14 00:00:00,28.9,25.2,29.72,SW,217,0.0,0.0,86,0.00,,,0.10,VWS V14.01,2013-02-14 05:00:00,
2013-02-14 00:02:00,28.9,25.2,29.72,SW,217,0.0,0.0,86,0.00,,,0.00,VWS V14.01,2013-02-14 05:02:00,
2013-02-14 00:07:00,28.7,25.0,29.71,SW,217,0.0,0.0,86,0.00,,,0.00,VWS V14.01,2013-02-14 05:07:00,
2013-02-14 00:12:00,28.5,24.9,29.71,SW,217,0.0,0.0,86,0.00,,,0.00,VWS V14.01,2013-02-14 05:12:00,
2013-02-14 00:18:00,28.4,24.8,29.72,SW,217,0.0,0.0,86,0.00,,,0.00,VWS V14.01,2013-02-14 05:18:00,
2013-02-14 00:23:00,28.1,24.5,29.72,SW,217,0.0,0.0,86,0.00,,,0.00,VWS V14.01,2013-02-14 05:23:00,
2013-02-14 00:28:00,27.9,24.3,29.72,SW,217,0.0,0.0,86,0.00,,,0.00,VWS V14.01,2013-02-14 05:28:00,
2013-02-14 00:33:00,27.6,24.0,29.72,SW,217,0.0,0.0,86,0.00,,,0.00,VWS V14.01,2013-02-14 05:33:00,
2013-02-14 00:38:00,27.4,23.8,29.72,SW,217,0.0,0.0,86,0.00,,,0.00,VWS V14.01,2013-02-14 05:38:00,
2013-02-14 00:43:00,27.2,23.6,29.72,SW,217,0.0,0.0,86,0.00,,,0.00,VWS V14.01,2013-02-14 05:43:00,
2013-02-14 00:48:00,27.0,23.4,29.72,SW,217,0.0,0.0,86,0.00,,,0.00,VWS V14.01,2013-02-14 05:48:00,
2013-02-14 00:53:00,26.8,23.2,29.72,SW,217,0.0,0.0,86,0.00,,,0.00,VWS V14.01,2013-02-14 05:53:00,
2013-02-14 00:58:00,26.7,23.1,29.72,SW,217,0.0,0.0,86,0.00,,,0.00,VWS V14.01,2013-02-14 05:58:00,
2013-02-14 01:03:00,26.6,23.0,29.72,SW,217,0.0,0.0,86,0.00,,,0.00,VWS V14.01,2013-02-14 06:03:00,
2013-02-14 01:08:00,26.5,22.9,29.72,SW,217,0.0,0.0,86,0.00,,,0.00,VWS V14.01,2013-02-14 06:08:00,
2013-02-14 01:13:00,26.6,23.3,29.72,SW,217,0.0,0.0,87,0.00,,,0.00,VWS V14.01,2013-02-14 06:13:00,
2013-02-14 01:18:00,26.6,23.3,29.72,SW,217,0.0,0.0,87,0.00,,,0.00,VWS V14.01,2013-02-14 06:18:00,
2013-02-14 01:23:00,26.6,23.3,29.72,SW,217,0.0,0.0,87,0.00,,,0.00,VWS V14.01,2013-02-14 06:23:00,
2013-02-14 01:28:00,26.7,23.4,29.71,SW,217,0.0,0.0,87,0.00,,,0.00,VWS V14.01,2013-02-14 06:28:00,
2013-02-14 01:33:00,26.9,23.8,29.71,SW,217,0.0,0.0,88,0.00,,,0.00,VWS V14.01,2013-02-14 06:33:00,
2013-02-14 01:38:00,27.1,24.0,29.72,SW,217,0.0,0.0,88,0.00,,,0.00,VWS V14.01,2013-02-14 06:38:00,
2013-02-14 01:43:00,27.3,24.2,29.71,SW,217,0.0,0.0,88,0.00,,,0.00,VWS V14.01,2013-02-14 06:43:00,
2013-02-14 01:48:00,27.4,24.3,29.71,SW,217,0.0,0.0,88,0.00,,,0.00,VWS V14.01,2013-02-14 06:48:00,
2013-02-14 01:53:00,27.5,24.4,29.71,SW,217,0.0,0.0,88,0.00,,,0.00,VWS V14.01,2013-02-14 06:53:00,
2013-02-14 01:58:00,27.5,24.4,29.71,SW,217,0.0,0.0,88,0.00,,,0.00,VWS V14.01,2013-02-14 06:58:00,
2013-02-14 02:04:00,27.6,24.5,29.71,SW,217,0.0,0.0,88,0.00,,,0.00,VWS V14.01,2013-02-14 07:04:00,
2013-02-14 02:09:00,27.6,24.5,29.71,SW,217,0.0,0.0,88,0.00,,,0.00,VWS V14.01,2013-02-14 07:09:00,
2013-02-14 02:14:00,27.6,24.8,29.71,SW,217,0.0,0.0,89,0.00,,,0.00,VWS V14.01,2013-02-14 07:14:00,
2013-02-14 02:19:00,27.7,24.9,29.71,SW,217,0.0,0.0,89,0.00,,,0.00,VWS V14.01,2013-02-14 07:19:00,
2013-02-14 02:24:00,27.7,24.9,29.71,SW,217,0.0,0.0,89,0.00,,,0.00,VWS V14.01,2013-02-14 07:24:00,
2013-02-14 02:29:00,27.7,24.9,29.71,SW,217,0.0,0.0,89,0.00,,,0.00,VWS V14.01,2013-02-14 07:29:00,
2013-02-14 02:34:00,27.7,24.9,29.71,SW,217,0.0,0.0,89,0.00,,,0.00,VWS V14.01,2013-02-14 07:34:00,
2013-02-14 02:39:00,27.7,24.9,29.71,SW,217,0.0,0.0,89,0.00,,,0.00,VWS V14.01,2013-02-14 07:39:00,
2013-02-14 02:44:00,27.7,24.9,29.70,SW,217,0.0,0.0,89,0.00,,,0.00,VWS V14.01,2013-02-14 07:44:00,
2013-02-14 02:49:00,27.7,24.9,29.70,SW,217,0.0,0.0,89,0.00,,,0.00,VWS V14.01,2013-02-14 07:49:00,
2013-02-14 02:54:00,27.6,24.8,29.70,SW,217,0.0,0.0,89,0.00,,,0.00,VWS V14.01,2013-02-14 07:54:00,
2013-02-14 02:59:00,27.6,24.8,29.70,SW,217,0.0,0.0,89,0.00,,,0.00,VWS V14.01,2013-02-14 07:59:00,
2013-02-14 03:04:00,27.5,24.7,29.70,SW,217,0.0,0.0,89,0.00,,,0.00,VWS V14.01,2013-02-14 08:04:00,
2013-02-14 03:09:00,27.5,24.7,29.70,SW,217,0.0,0.0,89,0.00,,,0.00,VWS V14.01,2013-02-14 08:09:00,
2013-02-14 03:14:00,27.3,24.5,29.70,SW,217,0.0,0.0,89,0.00,,,0.00,VWS V14.01,2013-02-14 08:14:00,
2013-02-14 03:19:00,27.2,24.4,29.70,SW,217,0.0,0.0,89,0.00,,,0.00,VWS V14.01,2013-02-14 08:19:00,
2013-02-14 03:24:00,27.1,24.3,29.70,SW,217,0.0,0.0,89,0.00,,,0.00,VWS V14.01,2013-02-14 08:24:00,
2013-02-14 03:30:00,27.1,24.3,29.70,SW,217,0.0,0.0,89,0.00,,,0.00,VWS V14.01,2013-02-14 08:30:00,
2013-02-14 03:35:00,27.1,24.3,29.70,SW,217,0.0,0.0,89,0.00,,,0.00,VWS V14.01,2013-02-14 08:35:00,
2013-02-14 03:40:00,27.2,24.4,29.70,SW,214,0.0,2.0,89,0.00,,,0.00,VWS V14.01,2013-02-14 08:40:00,
2013-02-14 03:45:00,27.4,24.9,29.70,SSW,211,1.0,3.0,90,0.00,,,0.00,VWS V14.01,2013-02-14 08:45:00,
2013-02-14 03:50:00,27.9,25.4,29.70,SSW,211,0.0,0.0,90,0.00,,,0.00,VWS V14.01,2013-02-14 08:50:00,
2013-02-14 03:55:00,28.3,25.8,29.69,SSW,211,0.0,0.0,90,0.00,,,0.00,VWS V14.01,2013-02-14 08:55:00,
2013-02-14 04:00:00,28.6,26.0,29.69,SSW,211,0.0,0.0,90,0.00,,,0.00,VWS V14.01,2013-02-14 09:00:00,
2013-02-14 04:05:00,28.9,26.3,29.69,SSW,211,0.0,0.0,90,0.00,,,0.00,VWS V14.01,2013-02-14 09:05:00,
2013-02-14 04:10:00,29.1,26.5,29.69,SSW,211,0.0,0.0,90,0.00,,,0.00,VWS V14.01,2013-02-14 09:10:00,
2013-02-14 04:15:00,29.3,26.7,29.69,SSW,211,0.0,0.0,90,0.00,,,0.00,VWS V14.01,2013-02-14 09:15:00,
2013-02-14 04:20:00,29.5,26.9,29.69,SSW,211,0.0,0.0,90,0.00,,,0.00,VWS V14.01,2013-02-14 09:20:00,
2013-02-14 04:25:00,29.7,27.1,29.69,SSW,210,0.0,0.0,90,0.00,,,0.00,VWS V14.01,2013-02-14 09:25:00,
2013-02-14 04:31:00,29.9,27.6,29.69,SSW,210,0.0,0.0,91,0.00,,,0.00,VWS V14.01,2013-02-14 09:31:00,
2013-02-14 04:36:00,30.1,27.8,29.69,SSW,210,0.0,0.0,91,0.00,,,0.00,VWS V14.01,2013-02-14 09:36:00,
2013-02-14 04:41:00,30.2,27.9,29.68,SSW,209,0.0,0.0,91,0.00,,,0.00,VWS V14.01,2013-02-14 09:41:00,
2013-02-14 04:46:00,30.4,28.1,29.68,South,179,3.0,4.0,91,0.00,,,0.00,VWS V14.01,2013-02-14 09:46:00,
2013-02-14 04:51:00,30.6,28.3,29.68,South,179,3.0,6.0,91,0.00,,,0.00,VWS V14.01,2013-02-14 09:51:00,
2013-02-14 04:56:00,30.7,28.4,29.68,South,179,1.0,1.0,91,0.00,,,0.00,VWS V14.01,2013-02-14 09:56:00,
2013-02-14 05:01:00,30.8,28.5,29.68,South,178,0.0,0.0,91,0.00,,,0.00,VWS V14.01,2013-02-14 10:01:00,
2013-02-14 05:06:00,30.9,28.6,29.68,South,178,0.0,0.0,91,0.00,,,0.00,VWS V14.01,2013-02-14 10:06:00,
2013-02-14 05:11:00,31.0,28.7,29.68,South,178,0.0,0.0,91,0.00,,,0.00,VWS V14.01,2013-02-14 10:11:00,
2013-02-14 05:16:00,31.0,28.7,29.68,South,178,0.0,0.0,91,0.00,,,0.00,VWS V14.01,2013-02-14 10:16:00,
2013-02-14 05:21:00,31.1,28.8,29.68,South,178,0.0,2.0,91,0.00,,,0.00,VWS V14.01,2013-02-14 10:21:00,
2013-02-14 05:26:00,31.1,28.8,29.68,South,174,0.0,0.0,91,0.00,,,0.00,VWS V14.01,2013-02-14 10:26:00,
2013-02-14 05:31:00,31.2,28.9,29.68,South,170,0.0,0.0,91,0.00,,,0.00,VWS V14.01,2013-02-14 10:31:00,
2013-02-14 05:36:00,31.2,28.9,29.68,South,170,0.0,0.0,91,0.00,,,0.00,VWS V14.01,2013-02-14 10:36:00,
2013-02-14 05:41:00,31.1,28.8,29.68,South,170,0.0,0.0,91,0.00,,,0.00,VWS V14.01,2013-02-14 10:41:00,
2013-02-14 05:46:00,31.2,28.9,29.67,South,170,0.0,0.0,91,0.00,,,0.00,VWS V14.01,2013-02-14 10:46:00,
2013-02-14 05:51:00,31.1,28.8,29.67,South,170,0.0,0.0,91,0.00,,,0.00,VWS V14.01,2013-02-14 10:51:00,
2013-02-14 05:56:00,31.2,28.9,29.67,South,170,0.0,0.0,91,0.00,,,0.00,VWS V14.01,2013-02-14 10:56:00,
2013-02-14 06:02:00,31.2,28.9,29.67,South,170,2.0,4.0,91,0.00,,,0.00,VWS V14.01,2013-02-14 11:02:00,
2013-02-14 06:07:00,31.3,29.0,29.67,South,170,1.0,3.0,91,0.00,,,0.00,VWS V14.01,2013-02-14 11:07:00,
2013-02-14 06:12:00,31.3,29.0,29.67,South,170,0.0,0.0,91,0.00,,,0.00,VWS V14.01,2013-02-14 11:12:00,
2013-02-14 06:17:00,31.5,29.2,29.67,South,170,0.0,0.0,91,0.00,,,0.00,VWS V14.01,2013-02-14 11:17:00,
2013-02-14 06:22:00,31.5,29.2,29.67,South,170,0.0,0.0,91,0.00,,,0.00,VWS V14.01,2013-02-14 11:22:00,
2013-02-14 06:27:00,31.6,29.3,29.67,South,170,0.0,0.0,91,0.00,,,0.00,VWS V14.01,2013-02-14 11:27:00,
2013-02-14 06:32:00,31.7,29.6,29.67,South,170,0.0,0.0,92,0.00,,,0.00,VWS V14.01,2013-02-14 11:32:00,
2013-02-14 06:37:00,31.7,29.6,29.66,South,170,0.0,0.0,92,0.00,,,0.00,VWS V14.01,2013-02-14 11:37:00,
2013-02-14 06:42:00,31.8,29.8,29.67,South,170,0.0,0.0,92,0.00,,,0.00,VWS V14.01,2013-02-14 11:42:00,
2013-02-14 06:47:00,31.8,29.8,29.66,SSE,168,0.0,0.0,92,0.00,,,0.00,VWS V14.01,2013-02-14 11:47:00,
2013-02-14 06:52:00,31.9,29.8,29.66,SSE,168,0.0,0.0,92,0.00,,,0.00,VWS V14.01,2013-02-14 11:52:00,
2013-02-14 06:57:00,31.9,29.8,29.66,SSE,168,0.0,0.0,92,0.00,,,0.00,VWS V14.01,2013-02-14 11:57:00,
2013-02-14 07:02:00,32.0,29.9,29.66,SSE,168,0.0,0.0,92,0.00,,,0.00,VWS V14.01,2013-02-14 12:02:00,
2013-02-14 07:07:00,32.0,29.9,29.66,SSE,168,0.0,0.0,92,0.00,,,0.00,VWS V14.01,2013-02-14 12:07:00,
2013-02-14 07:12:00,32.1,30.0,29.66,SSE,168,0.0,0.0,92,0.00,,,0.00,VWS V14.01,2013-02-14 12:12:00,
2013-02-14 07:17:00,32.2,30.1,29.66,SSE,168,0.0,0.0,92,0.00,,,0.00,VWS V14.01,2013-02-14 12:17:00,
2013-02-14 07:22:00,32.2,30.1,29.66,SSE,168,0.0,0.0,92,0.00,,,0.00,VWS V14.01,2013-02-14 12:22:00,
2013-02-14 07:27:00,32.4,30.3,29.66,SSE,168,0.0,0.0,92,0.00,,,0.00,VWS V14.01,2013-02-14 12:27:00,
2013-02-14 07:33:00,32.5,30.4,29.66,SSE,168,0.0,4.0,92,0.00,,,0.00,VWS V14.01,2013-02-14 12:33:00,
2013-02-14 07:38:00,32.6,30.5,29.66,SSE,168,0.0,0.0,92,0.00,,,0.00,VWS V14.01,2013-02-14 12:38:00,
2013-02-14 07:43:00,32.7,30.6,29.65,SSE,168,0.0,0.0,92,0.00,,,0.00,VWS V14.01,2013-02-14 12:43:00,
2013-02-14 07:48:00,32.8,30.7,29.65,SSE,168,3.0,4.0,92,0.00,,,0.00,VWS V14.01,2013-02-14 12:48:00,
2013-02-14 07:53:00,32.9,30.8,29.65,SSE,168,0.0,0.0,92,0.00,,,0.00,VWS V14.01,2013-02-14 12:53:00,
2013-02-14 07:58:00,33.0,30.9,29.64,SSE,168,0.0,0.0,92,0.00,,,0.00,VWS V14.01,2013-02-14 12:58:00,
2013-02-14 08:03:00,33.1,31.0,29.64,SSE,156,6.0,6.0,92,0.00,,,0.00,VWS V14.01,2013-02-14 13:03:00,
2013-02-14 08:08:00,33.2,31.1,29.64,SSE,147,3.0,8.0,92,0.00,,,0.00,VWS V14.01,2013-02-14 13:08:00,
2013-02-14 08:14:00,33.4,31.3,29.64,SE,136,2.0,6.0,92,0.00,,,0.00,VWS V14.01,2013-02-14 13:14:00,
2013-02-14 08:19:00,33.5,31.4,29.64,SE,135,2.0,7.0,92,0.00,,,0.00,VWS V14.01,2013-02-14 13:19:00,
2013-02-14 08:24:00,33.7,31.6,29.64,SE,134,0.0,0.0,92,0.00,,,0.00,VWS V14.01,2013-02-14 13:24:00,
2013-02-14 08:29:00,33.9,31.8,29.63,SE,134,4.0,7.0,92,0.00,,,0.00,VWS V14.01,2013-02-14 13:29:00,
2013-02-14 08:34:00,34.0,31.9,29.63,SE,134,0.0,0.0,92,0.00,,,0.00,VWS V14.01,2013-02-14 13:34:00,
2013-02-14 08:39:00,34.1,32.0,29.63,SE,134,0.0,3.0,92,0.00,,,0.00,VWS V14.01,2013-02-14 13:39:00,
2013-02-14 08:44:00,34.3,32.2,29.63,SE,134,4.0,8.0,92,0.00,,,0.00,VWS V14.01,2013-02-14 13:44:00,
2013-02-14 08:49:00,34.4,32.3,29.62,SE,134,4.0,5.0,92,0.00,,,0.00,VWS V14.01,2013-02-14 13:49:00,
2013-02-14 08:54:00,34.6,32.5,29.63,SE,133,4.0,6.0,92,0.00,,,0.00,VWS V14.01,2013-02-14 13:54:00,
2013-02-14 08:59:00,34.9,32.8,29.62,SE,143,1.0,10.0,92,0.00,,,0.00,VWS V14.01,2013-02-14 13:59:00,
2013-02-14 09:04:00,35.4,33.3,29.62,SE,139,3.0,7.0,92,0.00,,,0.00,VWS V14.01,2013-02-14 14:04:00,
2013-02-14 09:09:00,35.8,33.7,29.62,SE,139,0.0,5.0,92,0.00,,,0.00,VWS V14.01,2013-02-14 14:09:00,
2013-02-14 09:14:00,35.8,33.7,29.62,SE,146,5.0,6.0,92,0.00,,,0.00,VWS V14.01,2013-02-14 14:14:00,
2013-02-14 09:19:00,36.1,34.0,29.62,SE,145,3.0,4.0,92,0.00,,,0.00,VWS V14.01,2013-02-14 14:19:00,
2013-02-14 09:24:00,36.4,34.3,29.62,SSE,147,0.0,0.0,92,0.00,,,0.00,VWS V14.01,2013-02-14 14:24:00,
2013-02-14 09:29:00,36.6,34.5,29.61,SE,145,0.0,0.0,92,0.00,,,0.00,VWS V14.01,2013-02-14 14:29:00,
2013-02-14 09:34:00,36.9,34.8,29.61,SE,145,0.0,6.0,92,0.00,,,0.00,VWS V14.01,2013-02-14 14:34:00,
2013-02-14 09:39:00,37.2,34.8,29.62,SSE,159,8.0,10.0,91,0.00,,,0.00,VWS V14.01,2013-02-14 14:39:00,
2013-02-14 09:44:00,37.5,35.1,29.62,South,185,5.0,6.0,91,0.00,,,0.00,VWS V14.01,2013-02-14 14:44:00,
2013-02-14 09:49:00,37.7,35.0,29.62,SSE,161,6.0,8.0,90,0.00,,,0.00,VWS V14.01,2013-02-14 14:49:00,
2013-02-14 09:55:00,38.0,35.3,29.62,South,180,9.0,9.0,90,0.00,,,0.00,VWS V14.01,2013-02-14 14:55:00,
2013-02-14 10:00:00,38.4,35.5,29.62,SSE,166,5.0,12.0,89,0.00,,,0.00,VWS V14.01,2013-02-14 15:00:00,
2013-02-14 10:05:00,38.9,35.7,29.61,South,176,3.0,7.0,88,0.00,,,0.00,VWS V14.01,2013-02-14 15:05:00,
2013-02-14 10:10:00,39.5,35.7,29.61,South,178,0.0,0.0,86,0.00,,,0.00,VWS V14.01,2013-02-14 15:10:00,
2013-02-14 10:15:00,40.3,35.9,29.61,South,181,4.0,6.0,84,0.00,,BKN100,0.00,VWS V14.01,2013-02-14 15:15:00,
2013-02-14 10:20:00,41.1,35.7,29.61,SSW,198,10.0,14.0,81,0.00,,BKN100,0.00,VWS V14.01,2013-02-14 15:20:00,
2013-02-14 10:25:00,41.6,35.6,29.61,South,182,3.0,8.0,79,0.01,,BKN100,0.01,VWS V14.01,2013-02-14 15:25:00,
2013-02-14 10:30:00,41.8,34.8,29.61,SSW,202,7.0,11.0,76,0.02,,BKN100,0.02,VWS V14.01,2013-02-14 15:30:00,
2013-02-14 10:35:00,41.6,34.3,29.61,South,180,6.0,9.0,75,0.02,,BKN100,0.02,VWS V14.01,2013-02-14 15:35:00,
2013-02-14 10:40:00,41.4,34.1,29.61,SSW,210,6.0,8.0,75,0.02,,BKN100,0.02,VWS V14.01,2013-02-14 15:40:00,
2013-02-14 10:45:00,41.2,33.9,29.61,SSW,197,3.0,6.0,75,0.02,,BKN100,0.02,VWS V14.01,2013-02-14 15:45:00,
2013-02-14 10:50:00,41.1,33.8,29.61,South,188,5.0,10.0,75,0.02,,BKN100,0.02,VWS V14.01,2013-02-14 15:50:00,
2013-02-14 10:56:00,41.1,33.8,29.61,SW,215,7.0,15.0,75,0.02,,BKN100,0.02,VWS V14.01,2013-02-14 15:56:00,
2013-02-14 11:01:00,40.9,33.6,29.61,SSW,201,3.0,7.0,75,0.03,,BKN100,0.03,VWS V14.01,2013-02-14 16:01:00,
2013-02-14 11:06:00,40.8,33.5,29.61,SSW,213,12.0,14.0,75,0.03,,BKN100,0.03,VWS V14.01,2013-02-14 16:06:00,
2013-02-14 11:11:00,40.6,33.6,29.61,SW,224,3.0,13.0,76,0.03,,BKN100,0.03,VWS V14.01,2013-02-14 16:11:00,
2013-02-14 11:16:00,40.4,33.5,29.61,SSW,192,7.0,10.0,76,0.03,,BKN100,0.03,VWS V14.01,2013-02-14 16:16:00,
2013-02-14 11:21:00,40.3,33.3,29.61,South,180,5.0,9.0,76,0.03,,BKN100,0.03,VWS V14.01,2013-02-14 16:21:00,
2013-02-14 11:26:00,40.2,33.2,29.61,SSW,205,14.0,17.0,76,0.03,,BKN100,0.03,VWS V14.01,2013-02-14 16:26:00,
2013-02-14 11:31:00,40.1,33.5,29.61,SSW,203,0.0,5.0,77,0.01,,OVC100,0.03,VWS V14.01,2013-02-14 16:31:00,
2013-02-14 11:36:00,40.0,33.4,29.61,SSW,196,7.0,10.0,77,0.01,,OVC100,0.03,VWS V14.01,2013-02-14 16:36:00,
2013-02-14 11:41:00,40.0,33.4,29.61,South,180,2.0,6.0,77,0.01,,OVC100,0.03,VWS V14.01,2013-02-14 16:41:00,
2013-02-14 11:46:00,39.9,33.3,29.61,South,189,14.0,14.0,77,0.01,,OVC100,0.03,VWS V14.01,2013-02-14 16:46:00,
2013-02-14 11:51:00,39.8,33.5,29.61,SSW,201,1.0,11.0,78,0.01,,OVC100,0.03,VWS V14.01,2013-02-14 16:51:00,
2013-02-14 11:56:00,39.7,33.4,29.61,SSW,201,6.0,11.0,78,0.01,,OVC100,0.03,VWS V14.01,2013-02-14 16:56:00,
2013-02-14 12:01:00,39.6,33.3,29.61,SSW,200,7.0,15.0,78,0.00,,OVC023,0.03,VWS V14.01,2013-02-14 17:01:00,
2013-02-14 12:06:00,39.4,33.1,29.61,SSW,203,4.0,13.0,78,0.00,,OVC023,0.03,VWS V14.01,2013-02-14 17:06:00,
2013-02-14 12:11:00,39.3,33.3,29.61,South,188,8.0,14.0,79,0.01,,OVC023,0.04,VWS V14.01,2013-02-14 17:11:00,
2013-02-14 12:16:00,39.2,33.2,29.61,South,189,3.0,7.0,79,0.01,,OVC023,0.04,VWS V14.01,2013-02-14 17:16:00,
2013-02-14 12:21:00,39.1,33.2,29.61,South,188,6.0,8.0,79,0.01,,OVC023,0.04,VWS V14.01,2013-02-14 17:21:00,
2013-02-14 12:26:00,39.0,33.4,29.61,SSE,163,3.0,6.0,80,0.01,,OVC023,0.04,VWS V14.01,2013-02-14 17:26:00,
2013-02-14 12:31:00,39.0,33.4,29.61,South,180,10.0,10.0,80,0.01,,OVC023,0.04,VWS V14.01,2013-02-14 17:31:00,
2013-02-14 12:36:00,39.1,33.5,29.61,SW,234,8.0,10.0,80,0.01,,OVC023,0.04,VWS V14.01,2013-02-14 17:36:00,
2013-02-14 12:42:00,39.1,33.8,29.61,SW,218,0.0,4.0,81,0.01,,OVC023,0.04,VWS V14.01,2013-02-14 17:42:00,
2013-02-14 12:47:00,39.3,33.7,29.61,SSW,194,5.0,13.0,80,0.01,,OVC023,0.04,VWS V14.01,2013-02-14 17:47:00,
2013-02-14 12:52:00,39.4,33.8,29.61,South,187,9.0,10.0,80,0.01,,OVC023,0.04,VWS V14.01,2013-02-14 17:52:00,
2013-02-14 12:57:00,39.5,33.8,29.61,South,182,3.0,11.0,80,0.01,,OVC023,0.04,VWS V14.01,2013-02-14 17:57:00,
2013-02-14 13:02:00,39.5,33.8,29.61,SSW,199,3.0,7.0,80,0.01,,OVC038,0.04,VWS V14.01,2013-02-14 18:02:00,
2013-02-14 13:07:00,39.4,33.8,29.60,SSW,203,3.0,9.0,80,0.01,,OVC038,0.04,VWS V14.01,2013-02-14 18:07:00,
2013-02-14 13:12:00,39.3,33.7,29.60,South,188,7.0,12.0,80,0.01,,OVC038,0.04,VWS V14.01,2013-02-14 18:12:00,
2013-02-14 13:17:00,39.1,33.5,29.60,SSW,204,17.0,18.0,80,0.00,,OVC038,0.04,VWS V14.01,2013-02-14 18:17:00,
2013-02-14 13:22:00,39.0,33.4,29.60,SSW,208,5.0,13.0,80,0.00,,OVC038,0.04,VWS V14.01,2013-02-14 18:22:00,
2013-02-14 13:27:00,38.8,33.5,29.60,SSW,198,1.0,7.0,81,0.00,,OVC038,0.04,VWS V14.01,2013-02-14 18:27:00,
2013-02-14 13:32:00,38.7,33.4,29.60,SW,221,9.0,9.0,81,0.00,,OVC038,0.04,VWS V14.01,2013-02-14 18:32:00,
2013-02-14 13:37:00,38.6,33.6,29.60,SSW,211,7.0,11.0,82,0.00,,OVC038,0.04,VWS V14.01,2013-02-14 18:37:00,
2013-02-14 13:42:00,38.4,33.7,29.60,SW,231,1.0,6.0,83,0.00,,OVC038,0.04,VWS V14.01,2013-02-14 18:42:00,
2013-02-14 13:47:00,38.2,33.5,29.60,South,191,5.0,6.0,83,0.00,,OVC038,0.04,VWS V14.01,2013-02-14 18:47:00,
2013-02-14 13:52:00,38.1,33.7,29.60,WSW,237,0.0,4.0,84,0.00,,OVC038,0.04,VWS V14.01,2013-02-14 18:52:00,
2013-02-14 13:57:00,37.9,33.8,29.60,SSW,212,3.0,8.0,85,0.01,,OVC038,0.05,VWS V14.01,2013-02-14 18:57:00,
2013-02-14 14:03:00,37.8,33.7,29.60,SSW,209,2.0,6.0,85,0.01,,OVC022,0.05,VWS V14.01,2013-02-14 19:03:00,
2013-02-14 14:08:00,37.7,33.9,29.60,SW,232,4.0,9.0,86,0.01,,OVC022,0.05,VWS V14.01,2013-02-14 19:08:00,
2013-02-14 14:13:00,37.5,33.7,29.60,SSW,199,1.0,3.0,86,0.02,,OVC022,0.06,VWS V14.01,2013-02-14 19:13:00,
2013-02-14 14:18:00,37.4,33.9,29.60,SSW,198,4.0,4.0,87,0.02,,OVC022,0.06,VWS V14.01,2013-02-14 19:18:00,
2013-02-14 14:23:00,37.3,33.8,29.60,SSW,213,2.0,11.0,87,0.02,,OVC022,0.06,VWS V14.01,2013-02-14 19:23:00,
2013-02-14 14:28:00,37.3,34.1,29.60,SW,216,2.0,13.0,88,0.02,,OVC022,0.06,VWS V14.01,2013-02-14 19:28:00,
2013-02-14 14:33:00,37.1,33.9,29.60,SW,228,5.0,7.0,88,0.02,,OVC022,0.06,VWS V14.01,2013-02-14 19:33:00,
2013-02-14 14:38:00,37.0,33.8,29.61,South,191,7.0,12.0,88,0.02,,OVC022,0.06,VWS V14.01,2013-02-14 19:38:00,
2013-02-14 14:43:00,36.9,33.7,29.61,SSW,209,4.0,10.0,88,0.03,,OVC022,0.07,VWS V14.01,2013-02-14 19:43:00,
2013-02-14 14:48:00,36.7,33.5,29.61,SSW,207,3.0,9.0,88,0.03,,OVC022,0.07,VWS V14.01,2013-02-14 19:48:00,
2013-02-14 14:53:00,36.6,33.4,29.61,SSW,213,6.0,9.0,88,0.04,,OVC022,0.08,VWS V14.01,2013-02-14 19:53:00,
2013-02-14 14:58:00,36.5,33.6,29.61,SW,228,8.0,10.0,89,0.04,,OVC022,0.08,VWS V14.01,2013-02-14 19:58:00,
2013-02-14 15:03:00,36.3,33.4,29.61,SSW,197,5.0,8.0,89,0.04,,OVC022,0.09,VWS V14.01,2013-02-14 20:03:00,
2013-02-14 15:08:00,36.0,33.1,29.61,South,182,6.0,9.0,89,0.04,,OVC022,0.09,VWS V14.01,2013-02-14 20:08:00,
2013-02-14 15:13:00,35.8,32.9,29.61,SSW,192,3.0,6.0,89,0.05,,,0.10,VWS V14.01,2013-02-14 20:13:00,
2013-02-14 15:18:00,35.8,32.9,29.61,SW,229,2.0,10.0,89,0.04,,,0.10,VWS V14.01,2013-02-14 20:18:00,
2013-02-14 15:23:00,35.8,32.9,29.62,SW,221,3.0,6.0,89,0.04,,,0.10,VWS V14.01,2013-02-14 20:23:00,
2013-02-14 15:28:00,35.7,32.8,29.62,SSW,205,1.0,5.0,89,0.04,,,0.10,VWS V14.01,2013-02-14 20:28:00,
2013-02-14 15:33:00,35.6,32.7,29.62,SW,217,7.0,7.0,89,0.04,,,0.10,VWS V14.01,2013-02-14 20:33:00,
2013-02-14 15:38:00,35.5,32.6,29.62,SW,222,0.0,8.0,89,0.04,,,0.10,VWS V14.01,2013-02-14 20:38:00,
2013-02-14 15:43:00,35.5,32.6,29.62,SSW,201,5.0,8.0,89,0.05,,,0.11,VWS V14.01,2013-02-14 20:43:00,
2013-02-14 15:48:00,35.5,32.9,29.62,SSW,209,2.0,7.0,90,0.04,,,0.11,VWS V14.01,2013-02-14 20:48:00,
2013-02-14 15:53:00,35.6,33.0,29.62,SSW,207,0.0,3.0,90,0.04,,,0.11,VWS V14.01,2013-02-14 20:53:00,
2013-02-14 15:58:00,35.7,33.1,29.62,SSW,207,10.0,10.0,90,0.05,,,0.12,VWS V14.01,2013-02-14 20:58:00,
2013-02-14 16:03:00,35.8,33.2,29.63,SW,229,4.0,11.0,90,0.04,,,0.12,VWS V14.01,2013-02-14 21:03:00,
2013-02-14 16:08:00,35.8,33.2,29.63,SW,227,3.0,10.0,90,0.05,,,0.13,VWS V14.01,2013-02-14 21:08:00,
2013-02-14 16:13:00,35.8,33.2,29.63,WSW,241,1.0,8.0,90,0.06,,,0.14,VWS V14.01,2013-02-14 21:13:00,
2013-02-14 16:19:00,35.8,33.2,29.64,SW,228,6.0,6.0,90,0.04,,,0.14,VWS V14.01,2013-02-14 21:19:00,
2013-02-14 16:24:00,35.8,33.2,29.64,SW,232,9.0,11.0,90,0.04,,,0.14,VWS V14.01,2013-02-14 21:24:00,
2013-02-14 16:29:00,35.8,33.2,29.64,WSW,244,4.0,9.0,90,0.04,,,0.14,VWS V14.01,2013-02-14 21:29:00,
2013-02-14 16:34:00,35.8,33.2,29.64,WSW,242,5.0,10.0,90,0.05,,,0.15,VWS V14.01,2013-02-14 21:34:00,
2013-02-14 16:39:00,35.8,33.2,29.64,SW,227,1.0,6.0,90,0.05,,,0.15,VWS V14.01,2013-02-14 21:39:00,
2013-02-14 16:44:00,35.8,33.4,29.65,SW,228,5.0,10.0,91,0.05,,,0.15,VWS V14.01,2013-02-14 21:44:00,
2013-02-14 16:49:00,35.8,33.4,29.65,WSW,245,2.0,17.0,91,0.04,,,0.15,VWS V14.01,2013-02-14 21:49:00,
2013-02-14 16:54:00,35.8,33.4,29.65,WSW,243,7.0,16.0,91,0.05,,,0.16,VWS V14.01,2013-02-14 21:54:00,
2013-02-14 16:59:00,35.8,33.4,29.66,WSW,249,14.0,19.0,91,0.05,,,0.16,VWS V14.01,2013-02-14 21:59:00,
2013-02-14 17:04:00,35.8,33.4,29.66,WSW,257,4.0,12.0,91,0.04,,,0.16,VWS V14.01,2013-02-14 22:04:00,
2013-02-14 17:09:00,35.8,33.4,29.66,WSW,252,4.0,20.0,91,0.04,,,0.16,VWS V14.01,2013-02-14 22:09:00,
2013-02-14 17:14:00,35.8,33.2,29.67,WSW,257,4.0,9.0,90,0.04,,,0.16,VWS V14.01,2013-02-14 22:14:00,
2013-02-14 17:19:00,35.7,33.1,29.67,West,271,8.0,25.0,90,0.02,,,0.16,VWS V14.01,2013-02-14 22:19:00,
2013-02-14 17:24:00,35.4,32.8,29.68,SW,236,17.0,24.0,90,0.02,,,0.16,VWS V14.01,2013-02-14 22:24:00,
2013-02-14 17:29:00,35.1,32.5,29.68,WSW,255,15.0,20.0,90,0.02,,,0.16,VWS V14.01,2013-02-14 22:29:00,
2013-02-14 17:34:00,34.9,32.3,29.68,WSW,237,14.0,16.0,90,0.02,,,0.16,VWS V14.01,2013-02-14 22:34:00,
2013-02-14 17:39:00,34.7,32.1,29.69,SW,236,13.0,18.0,90,0.02,,,0.16,VWS V14.01,2013-02-14 22:39:00,
2013-02-14 17:44:00,34.7,32.1,29.69,WSW,257,13.0,18.0,90,0.02,,,0.16,VWS V14.01,2013-02-14 22:44:00,
2013-02-14 17:49:00,34.5,31.9,29.69,WSW,251,13.0,18.0,90,0.01,,,0.16,VWS V14.01,2013-02-14 22:49:00,
2013-02-14 17:55:00,34.3,31.7,29.70,SW,234,6.0,16.0,90,0.01,,,0.16,VWS V14.01,2013-02-14 22:55:00,
2013-02-14 18:00:00,34.2,31.6,29.70,WSW,240,15.0,20.0,90,0.01,,,0.16,VWS V14.01,2013-02-14 23:00:00,
2013-02-14 18:05:00,34.0,31.4,29.71,West,262,8.0,13.0,90,0.00,,,0.16,VWS V14.01,2013-02-14 23:05:00,
2013-02-14 18:10:00,33.9,31.6,29.71,SW,224,11.0,13.0,91,0.00,,,0.16,VWS V14.01,2013-02-14 23:10:00,
2013-02-14 18:15:00,33.9,31.6,29.72,SW,231,8.0,14.0,91,0.00,,,0.16,VWS V14.01,2013-02-14 23:15:00,
2013-02-14 18:20:00,33.8,31.5,29.72,WSW,239,13.0,24.0,91,0.00,,,0.16,VWS V14.01,2013-02-14 23:20:00,
2013-02-14 18:25:00,33.8,31.5,29.73,West,259,12.0,22.0,91,0.00,,,0.16,VWS V14.01,2013-02-14 23:25:00,
2013-02-14 18:30:00,33.8,31.5,29.73,SW,230,9.0,18.0,91,0.00,,,0.16,VWS V14.01,2013-02-14 23:30:00,
2013-02-14 18:35:00,33.8,31.5,29.73,WSW,253,12.0,15.0,91,0.00,,,0.16,VWS V14.01,2013-02-14 23:35:00,
2013-02-14 18:40:00,33.8,31.5,29.73,SW,234,11.0,12.0,91,0.00,,,0.16,VWS V14.01,2013-02-14 23:40:00,
2013-02-14 18:45:00,33.8,31.5,29.74,WSW,246,12.0,17.0,91,0.00,,,0.16,VWS V14.01,2013-02-14 23:45:00,
2013-02-14 18:50:00,33.8,31.5,29.74,WSW,237,10.0,18.0,91,0.00,,,0.16,VWS V14.01,2013-02-14 23:50:00,
2013-02-14 18:55:00,33.8,31.5,29.74,WSW,257,4.0,11.0,91,0.00,,,0.16,VWS V14.01,2013-02-14 23:55:00,
2013-02-14 19:00:00,33.8,31.5,29.75,SW,235,6.0,16.0,91,0.00,,,0.16,VWS V14.01,2013-02-15 00:00:00,
2013-02-14 19:05:00,33.8,31.5,29.75,West,259,8.0,16.0,91,0.00,,,0.16,VWS V14.01,2013-02-15 00:05:00,
2013-02-14 19:10:00,33.8,31.5,29.75,West,261,6.0,19.0,91,0.00,,,0.16,VWS V14.01,2013-02-15 00:10:00,
2013-02-14 19:15:00,33.7,31.4,29.76,West,276,10.0,22.0,91,0.00,,,0.16,VWS V14.01,2013-02-15 00:15:00,
2013-02-14 19:20:00,33.7,31.4,29.76,West,272,12.0,16.0,91,0.00,,,0.16,VWS V14.01,2013-02-15 00:20:00,
2013-02-14 19:25:00,33.7,31.4,29.77,WSW,246,11.0,16.0,91,0.00,,,0.16,VWS V14.01,2013-02-15 00:25:00,
2013-02-14 19:30:00,33.7,31.4,29.77,WSW,249,19.0,19.0,91,0.00,,,0.16,VWS V14.01,2013-02-15 00:30:00,
2013-02-14 19:35:00,33.7,31.4,29.77,West,267,11.0,19.0,91,0.00,,,0.16,VWS V14.01,2013-02-15 00:35:00,
2013-02-14 19:40:00,33.7,31.4,29.78,West,276,20.0,20.0,91,0.00,,,0.16,VWS V14.01,2013-02-15 00:40:00,
2013-02-14 19:45:00,33.6,31.3,29.78,WSW,256,14.0,18.0,91,0.00,,,0.16,VWS V14.01,2013-02-15 00:45:00,
2013-02-14 19:50:00,33.5,31.2,29.78,WSW,253,9.0,10.0,91,0.00,,,0.16,VWS V14.01,2013-02-15 00:50:00,
2013-02-14 19:55:00,33.5,31.2,29.78,West,260,10.0,17.0,91,0.00,,,0.16,VWS V14.01,2013-02-15 00:55:00,
2013-02-14 20:00:00,33.4,31.1,29.79,West,263,1.0,1.0,91,0.00,,,0.16,VWS V14.01,2013-02-15 01:00:00,
2013-02-14 20:06:00,33.3,31.0,29.79,West,271,0.0,12.0,91,0.00,,,0.16,VWS V14.01,2013-02-15 01:06:00,
2013-02-14 20:11:00,33.3,31.0,29.79,WSW,244,7.0,12.0,91,0.00,,,0.16,VWS V14.01,2013-02-15 01:11:00,
2013-02-14 20:16:00,33.2,30.9,29.80,West,261,14.0,15.0,91,0.00,,,0.16,VWS V14.01,2013-02-15 01:16:00,
2013-02-14 20:21:00,33.2,30.9,29.80,West,276,9.0,14.0,91,0.00,,,0.16,VWS V14.01,2013-02-15 01:21:00,
2013-02-14 20:26:00,33.2,30.9,29.80,WSW,243,11.0,11.0,91,0.00,,,0.16,VWS V14.01,2013-02-15 01:26:00,
2013-02-14 20:31:00,33.2,30.9,29.80,WSW,255,0.0,10.0,91,0.00,,,0.16,VWS V14.01,2013-02-15 01:31:00,
2013-02-14 20:36:00,33.1,30.8,29.81,West,261,0.0,1.0,91,0.00,,,0.16,VWS V14.01,2013-02-15 01:36:00,
2013-02-14 20:41:00,33.1,30.8,29.81,West,272,1.0,1.0,91,0.00,,,0.16,VWS V14.01,2013-02-15 01:41:00,
2013-02-14 20:46:00,33.1,30.8,29.81,WSW,257,16.0,16.0,91,0.00,,,0.16,VWS V14.01,2013-02-15 01:46:00,
2013-02-14 20:51:00,33.0,30.7,29.82,WSW,257,10.0,10.0,91,0.00,,,0.16,VWS V14.01,2013-02-15 01:51:00,
2013-02-14 20:56:00,32.9,30.6,29.82,WNW,284,6.0,8.0,91,0.00,,,0.16,VWS V14.01,2013-02-15 01:56:00,
2013-02-14 21:01:00,32.8,30.5,29.82,NW,311,0.0,1.0,91,0.00,,,0.16,VWS V14.01,2013-02-15 02:01:00,
2013-02-14 21:06:00,32.7,30.4,29.82,WNW,302,10.0,17.0,91,0.00,,,0.16,VWS V14.01,2013-02-15 02:06:00,
2013-02-14 21:11:00,32.5,30.2,29.83,WNW,297,10.0,13.0,91,0.00,,,0.16,VWS V14.01,2013-02-15 02:11:00,
2013-02-14 21:16:00,32.1,29.8,29.83,WNW,288,10.0,13.0,91,0.00,,,0.16,VWS V14.01,2013-02-15 02:16:00,
2013-02-14 21:21:00,32.0,29.7,29.83,NNW,328,6.0,10.0,91,0.00,,,0.16,VWS V14.01,2013-02-15 02:21:00,
2013-02-14 21:26:00,31.9,29.6,29.84,NW,315,1.0,10.0,91,0.00,,,0.16,VWS V14.01,2013-02-15 02:26:00,
2013-02-14 21:31:00,31.9,29.6,29.83,NW,306,0.0,1.0,91,0.00,,,0.16,VWS V14.01,2013-02-15 02:31:00,
2013-02-14 21:36:00,31.9,29.6,29.84,West,281,2.0,2.0,91,0.00,,,0.16,VWS V14.01,2013-02-15 02:36:00,
2013-02-14 21:41:00,31.6,29.3,29.84,WNW,294,0.0,15.0,91,0.00,,,0.16,VWS V14.01,2013-02-15 02:41:00,
2013-02-14 21:46:00,31.2,28.9,29.84,NW,310,0.0,13.0,91,0.00,,,0.16,VWS V14.01,2013-02-15 02:46:00,
2013-02-14 21:51:00,31.1,28.8,29.84,West,272,9.0,10.0,91,0.00,,,0.16,VWS V14.01,2013-02-15 02:51:00,
2013-02-14 21:56:00,30.9,28.6,29.85,West,280,9.0,13.0,91,0.00,,,0.16,VWS V14.01,2013-02-15 02:56:00,
2013-02-14 22:01:00,30.8,28.5,29.84,NW,310,1.0,7.0,91,0.00,,,0.16,VWS V14.01,2013-02-15 03:01:00,
2013-02-14 22:06:00,30.8,28.5,29.84,NW,311,0.0,7.0,91,0.00,,,0.16,VWS V14.01,2013-02-15 03:06:00,
2013-02-14 22:11:00,30.8,28.5,29.85,NW,318,8.0,9.0,91,0.00,,,0.16,VWS V14.01,2013-02-15 03:11:00,
2013-02-14 22:17:00,30.7,28.4,29.85,NW,317,12.0,12.0,91,0.00,,,0.16,VWS V14.01,2013-02-15 03:17:00,
2013-02-14 22:22:00,30.2,27.6,29.85,NW,307,10.0,13.0,90,0.00,,,0.16,VWS V14.01,2013-02-15 03:22:00,
2013-02-14 22:27:00,29.9,27.3,29.85,NNW,328,1.0,6.0,90,0.00,,,0.16,VWS V14.01,2013-02-15 03:27:00,
2013-02-14 22:32:00,29.7,27.1,29.86,WNW,288,5.0,12.0,90,0.00,,BKN085,0.16,VWS V14.01,2013-02-15 03:32:00,
2013-02-14 22:37:00,29.4,26.8,29.86,NW,309,8.0,12.0,90,0.00,,BKN085,0.16,VWS V14.01,2013-02-15 03:37:00,
2013-02-14 22:42:00,29.2,26.6,29.87,NW,315,5.0,9.0,90,0.00,,BKN085,0.16,VWS V14.01,2013-02-15 03:42:00,
2013-02-14 22:47:00,29.1,26.3,29.87,WNW,295,8.0,9.0,89,0.00,,BKN085,0.16,VWS V14.01,2013-02-15 03:47:00,
2013-02-14 22:52:00,29.0,26.2,29.87,WNW,290,0.0,8.0,89,0.00,,BKN085,0.16,VWS V14.01,2013-02-15 03:52:00,
2013-02-14 22:57:00,29.1,26.3,29.87,NW,305,0.0,1.0,89,0.00,,BKN085,0.16,VWS V14.01,2013-02-15 03:57:00,
2013-02-14 23:02:00,29.2,26.4,29.87,WNW,297,8.0,13.0,89,0.00,,OVC016,0.16,VWS V14.01,2013-02-15 04:02:00,
2013-02-14 23:07:00,29.2,26.4,29.88,NW,325,7.0,12.0,89,0.00,,OVC016,0.16,VWS V14.01,2013-02-15 04:07:00,
2013-02-14 23:12:00,29.2,26.1,29.88,NW,317,0.0,11.0,88,0.00,,OVC016,0.16,VWS V14.01,2013-02-15 04:12:00,
2013-02-14 23:17:00,29.2,26.1,29.88,WNW,303,0.0,6.0,88,0.00,,OVC016,0.16,VWS V14.01,2013-02-15 04:17:00,
2013-02-14 23:22:00,29.2,26.1,29.88,WNW,287,0.0,8.0,88,0.00,,OVC016,0.16,VWS V14.01,2013-02-15 04:22:00,
2013-02-14 23:27:00,29.1,26.0,29.89,WNW,303,0.0,1.0,88,0.00,,OVC016,0.16,VWS V14.01,2013-02-15 04:27:00,
2013-02-14 23:32:00,29.0,25.6,29.89,NW,306,0.0,9.0,87,0.00,,OVC016,0.16,VWS V14.01,2013-02-15 04:32:00,
2013-02-14 23:37:00,28.8,25.4,29.89,NW,310,8.0,11.0,87,0.00,,OVC016,0.16,VWS V14.01,2013-02-15 04:37:00,
2013-02-14 23:42:00,28.6,25.2,29.89,NW,312,0.0,9.0,87,0.00,,OVC016,0.16,VWS V14.01,2013-02-15 04:42:00,
2013-02-14 23:47:00,28.3,24.7,29.89,NW,319,10.0,14.0,86,0.00,,OVC016,0.16,VWS V14.01,2013-02-15 04:47:00,
2013-02-14 23:53:00,28.1,24.2,29.89,WNW,293,8.0,12.0,85,0.00,,OVC016,0.16,VWS V14.01,2013-02-15 04:53:00,
2013-02-14 23:58:00,27.9,24.0,29.89,NW,305,9.0,11.0,85,0.00,,OVC016,0.16,VWS V14.01,2013-02-15 04:58:00,